TimeAFT,TemperatureF,Dew PointF,Humidity,Sea Level PressureIn,VisibilityMPH,Wind Direction,Wind SpeedMPH,Gust SpeedMPH,PrecipitationIn,Events,Conditions,WindDirDegrees,DateUTC
12:20 AM,46.4,41.0,81,29.92,5.0,East,2.3,-,N/A,,Partly Cloudy,100,2013-12-09 19:50:00
1:20 AM,44.6,39.2,81,29.92,5.0,Variable,1.2,-,N/A,,Partly Cloudy,0,2013-12-09 20:50:00
2:20 AM,44.6,41.0,87,29.92,5.0,South,1.2,-,N/A,,Partly Cloudy,170,2013-12-09 21:50:00
3:20 AM,44.6,41.0,87,29.89,5.0,SE,2.3,-,N/A,,Partly Cloudy,140,2013-12-09 22:50:00
4:20 AM,42.8,41.0,93,29.89,5.0,West,4.6,-,N/A,,Partly Cloudy,270,2013-12-09 23:50:00
5:20 AM,42.8,39.2,87,29.86,5.0,East,1.2,-,N/A,,Partly Cloudy,90,2013-12-10 00:50:00
6:20 AM,41.0,37.4,87,29.83,5.6,WNW,2.3,-,N/A,,Partly Cloudy,290,2013-12-10 01:50:00
7:20 AM,42.8,39.2,87,29.83,6.2,East,2.3,-,N/A,,Partly Cloudy,80,2013-12-10 02:50:00
8:20 AM,44.6,39.2,81,29.83,6.2,West,2.3,-,N/A,,Partly Cloudy,280,2013-12-10 03:50:00
9:20 AM,48.2,41.0,76,29.80,3.1,West,4.6,-,N/A,,Smoke,270,2013-12-10 04:50:00
9:33 AM,50.0,41.0,71,29.80,2.2,West,5.8,-,N/A,,Smoke,270,2013-12-10 05:03:00
10:13 AM,53.6,39.2,58,29.80,1.5,NNE,1.2,-,N/A,,Smoke,30,2013-12-10 05:43:00
10:20 AM,53.6,41.0,62,29.80,1.1,North,1.2,-,N/A,,Smoke,10,2013-12-10 05:50:00
11:20 AM,57.2,42.8,59,29.77,1.6,West,2.3,-,N/A,,Smoke,270,2013-12-10 06:50:00
11:36 AM,57.2,41.0,55,29.74,3.7,West,3.5,-,N/A,,Partly Cloudy,260,2013-12-10 07:06:00
12:20 PM,60.8,41.0,48,29.74,4.3,West,3.5,-,N/A,,Scattered Clouds,260,2013-12-10 07:50:00
1:20 PM,59.0,41.0,51,29.71,5.0,WSW,5.8,-,N/A,,Mostly Cloudy,240,2013-12-10 08:50:00
2:20 PM,59.0,41.0,51,29.68,5.0,Variable,1.2,-,N/A,,Mostly Cloudy,0,2013-12-10 09:50:00
3:20 PM,59.0,41.0,51,29.71,5.6,Variable,1.2,-,N/A,,Mostly Cloudy,0,2013-12-10 10:50:00
4:20 PM,59.0,42.8,55,29.68,5.0,South,2.3,-,N/A,,Mostly Cloudy,180,2013-12-10 11:50:00
5:20 PM,53.6,44.6,72,29.71,3.1,North,5.8,-,N/A,,Smoke,350,2013-12-10 12:50:00
6:20 PM,57.2,44.6,63,29.77,3.7,SSW,6.9,-,N/A,,Mostly Cloudy,210,2013-12-10 13:50:00
7:20 PM,55.4,44.6,67,29.83,5.0,WSW,12.7,-,N/A,Rain,Light Rain,240,2013-12-10 14:50:00
8:20 PM,53.6,48.2,82,29.89,5.0,WSW,9.2,-,N/A,Rain,Rain,250,2013-12-10 15:50:00
9:20 PM,53.6,46.4,77,29.95,5.0,SW,16.1,-,N/A,Rain,Rain,230,2013-12-10 16:50:00
9:50 PM,53.6,46.4,77,29.92,3.7,South,9.2,-,N/A,Rain,Heavy Rain,190,2013-12-10 17:20:00
10:20 PM,55.4,42.8,63,29.92,5.6,WSW,18.4,31.1,N/A,,Mostly Cloudy,240,2013-12-10 17:50:00
11:20 PM,50.0,48.2,94,29.95,5.6,West,13.8,-,N/A,,Mostly Cloudy,260,2013-12-10 18:50:00